Location: Newark
(5.8900°S, 42.6378°W)
Time: 09:47:24
(UTC+00:00)

Vanguard 1 Rocket - Pass Details

Date: 26 October 2019
Orbit: 651 x 4226 km, 34.3° (Epoch: 17 November)

Event Time Altitude Azimuth Distance (km) Brightness Sun altitude
Rises 10:35:54 0° 294° (WNW) 3,740 10.0 30.8°
Reaches altitude 10° 10:41:20 10° 331° (NNW) 3,445 10.1 32.2°
Maximum altitude 10:43:18 11° 345° (NNW) 3,632 10.3 32.6°
Drops below altitude 10° 10:45:30 10° 358° (N) 3,983 10.6 33.2°
Sets 10:54:36 0° 29° (NNE) 6,121 11.8 35.4°
